Weather History for Montrose, CO

Change the Weather History Date:

Wednesday, March 27, 2013

  Actual Average Record
Temperature  
Mean Temperature 47 °F 44 °F  
Max Temperature 66 °F 58 °F 72 °F (2007)
Min Temperature 28 °F 31 °F 15 °F (2009)
Degree Days  
Heating Degree Days 18 21  
Month to date heating degree days 655 658  
Since 1 July heating degree days 5339 5373  
Cooling Degree Days 0 0  
Month to date cooling degree days 0 0  
Year to date cooling degree days 0 0  
Moisture  
Dew Point 16 °F    
Average Humidity 37    
Maximum Humidity 63    
Minimum Humidity 11    
Precipitation  
Precipitation 0.00 in 0.04 in 0.08 in (1998)
Month to date precipitation 0.42 0.87  
Year to date precipitation 1.23 2.10  
Sea Level Pressure  
Sea Level Pressure 29.92 in    
Wind  
Wind Speed 6 mph (South)    
Max Wind Speed 17 mph    
Max Gust Speed 23 mph    
Visibility 10 miles    
Events      
T = Trace of Precipitation, MM = Missing Value Source: NWS Daily Summary

Daily Weather History Graph

Daily Weather History Graph

Search for Another Location

Airport:

Trip Planner

Search our weather history database for the weather conditions in past years. The results will help you decide how hot, cold, wet, or windy it might be!

Date:

Astronomy

Mar. 27, 2013 Rise Set
Actual Time 7:03 AM MDT 7:30 PM MDT
Civil Twilight 6:37 AM MDT 7:57 PM MDT
Nautical Twilight 6:05 AM MDT 8:28 PM MDT
Astronomical Twilight 5:34 AM MDT 9:00 PM MDT
Moon 8:16 PM MDT (3/27) 6:57 AM MDT (3/27)
Length of Visible Light 13h 19m
Length of Day
12h 26m
Full, 100% of the Moon is Illuminated
Mar 27
Full
Apr 2
Last Quarter
Apr 10
New
Apr 18
First Quarter
Apr 25
Full

Hourly Weather History & Observations

Time (MDT) Temp. Windchill Dew Point Humidity Pressure Visibility Wind Dir Wind Speed Gust Speed Precip Events Conditions
12:53 AM 42.1 °F 37.1 °F 17.1 °F 37% 29.86 in 10.0 mi ESE 8.1 mph - N/A   Clear
1:53 AM 39.0 °F 34.8 °F 18.0 °F 43% 29.86 in 10.0 mi SE 5.8 mph - N/A   Clear
2:53 AM 36.0 °F 30.3 °F 19.0 °F 50% 29.86 in 10.0 mi SE 6.9 mph - N/A   Mostly Cloudy
3:53 AM 35.1 °F 30.1 °F 19.0 °F 52% 29.88 in 10.0 mi SE 5.8 mph - N/A   Clear
4:53 AM 35.1 °F - 19.0 °F 52% 29.89 in 10.0 mi Calm Calm - N/A   Clear
5:53 AM 30.0 °F 25.2 °F 18.0 °F 61% 29.94 in 10.0 mi South 4.6 mph - N/A   Clear
6:53 AM 28.9 °F 21.9 °F 18.0 °F 64% 29.97 in 10.0 mi SSE 6.9 mph - N/A   Clear
7:53 AM 32.0 °F 26.4 °F 19.9 °F 61% 29.99 in 10.0 mi SSE 5.8 mph - N/A   Clear
8:53 AM 41.0 °F - 21.9 °F 47% 29.99 in 10.0 mi Calm Calm - N/A   Clear
9:53 AM 48.0 °F - 19.0 °F 32% 29.97 in 10.0 mi NW 3.5 mph - N/A   Clear
10:53 AM 53.1 °F - 19.9 °F 27% 29.96 in 10.0 mi Variable 3.5 mph - N/A   Clear
11:53 AM 57.9 °F - 17.1 °F 20% 29.93 in 10.0 mi Calm Calm - N/A   Clear
12:53 PM 62.1 °F - 15.1 °F 16% 29.91 in 10.0 mi North 4.6 mph - N/A   Clear
1:53 PM 63.0 °F - 14.0 °F 15% 29.89 in 10.0 mi Calm Calm - N/A   Partly Cloudy
2:53 PM 64.9 °F - 10.0 °F 12% 29.88 in 10.0 mi WNW 6.9 mph - N/A   Scattered Clouds
3:53 PM 63.0 °F - 10.0 °F 13% 29.88 in 10.0 mi West 10.4 mph - N/A   Partly Cloudy
4:53 PM 64.0 °F - 10.0 °F 12% 29.87 in 10.0 mi NW 8.1 mph - N/A   Scattered Clouds
5:53 PM 64.0 °F - 9.0 °F 12% 29.89 in 10.0 mi WSW 9.2 mph - N/A   Scattered Clouds
6:53 PM 62.1 °F - 10.0 °F 13% 29.90 in 10.0 mi SW 12.7 mph - N/A   Clear
7:53 PM 55.9 °F - 14.0 °F 19% 29.94 in 10.0 mi SSW 8.1 mph - N/A   Scattered Clouds
8:53 PM 55.0 °F - 10.9 °F 17% 29.93 in 10.0 mi SW 9.2 mph - N/A   Clear
9:53 PM 48.0 °F - 14.0 °F 26% 29.95 in 10.0 mi ENE 5.8 mph - N/A   Clear
10:53 PM 46.0 °F 41.4 °F 14.0 °F 28% 29.95 in 10.0 mi ESE 9.2 mph - N/A   Clear
11:53 PM 44.1 °F 39.5 °F 15.1 °F 31% 29.94 in 10.0 mi SE 8.1 mph - N/A   Partly Cloudy